This demonstration page uses our WeatherBlox Daily Observations layout. Learn more.

Left ArrowRight Arrow

53.62937, 11.41316

Hourly Observations for March 29, 2018

Temp ( °F °C ) Dew Point ( °F °C ) Humidity (%) Winds ( mph kmh ) Pressure ( in mb ) Visibility ( mi km ) Precip ( " mm )
7:20 am 07:20 Cloudy with Light Snow 32 0 32 0 100 100 W 6 9 29.44 997 1 2 N/A
7:50 am 07:50 Cloudy with Light Snow 32 0 32 0 100 100 W 7 11 29.47 998 1 2 N/A
8:20 am 08:20 Cloudy with Light Snow 32 0 32 0 100 100 W 6 9 29.47 998 1 2 N/A
8:50 am 08:50 Cloudy with Light Snow 32 0 32 0 100 100 W 7 11 29.50 999 1 2 N/A
9:20 am 09:20 Cloudy with Light Snow 32 0 32 0 100 100 W 8 13 29.50 999 3 5 N/A
9:50 am 09:50 Cloudy with Light Snow 34 1 34 1 100 100 W 8 13 29.53 1000 4 7 N/A
10:20 am 10:20 Cloudy 34 1 34 1 100 100 W 8 13 29.53 1000 6 9 N/A
10:50 am 10:50 Cloudy 34 1 34 1 100 100 W 8 13 29.53 1000 6 9 N/A
11:20 am 11:20 Cloudy 34 1 34 1 100 100 W 8 13 29.56 1001 30 48 N/A
11:50 am 11:50 Cloudy 34 1 34 1 100 100 W 7 11 29.56 1001 5 8 N/A
12:20 pm 12:20 Mostly Cloudy 34 1 25 -4 70 70 W 7 11 29.59 1002 6 9 N/A
12:50 pm 12:50 Mostly Cloudy 36 2 34 1 93 93 W 7 11 29.59 1002 30 48 N/A
1:20 pm 13:20 Mostly Cloudy 36 2 34 1 93 93 W 7 11 29.59 1002 30 48 N/A
1:50 pm 13:50 Mostly Cloudy 36 2 34 1 93 93 W 7 11 29.62 1003 30 48 N/A
2:20 pm 14:20 Mostly Cloudy 36 2 34 1 93 93 W 7 11 29.62 1003 30 48 N/A
2:50 pm 14:50 Mostly Cloudy 36 2 34 1 93 93 WNW 7 11 29.62 1003 30 48 N/A
3:20 pm 15:20 Mostly Cloudy 36 2 34 1 93 93 W 6 9 29.62 1003 30 48 N/A
3:50 pm 15:50 Mostly Cloudy 36 2 34 1 93 93 WNW 7 11 29.65 1004 30 48 N/A
4:20 pm 16:20 Mostly Cloudy 37 3 34 1 87 87 W 7 11 29.65 1004 30 48 N/A
4:50 pm 16:50 Partly Cloudy 37 3 34 1 87 87 WNW 7 11 29.65 1004 30 48 N/A
5:20 pm 17:20 Mostly Cloudy 36 2 34 1 93 93 WNW 6 9 29.65 1004 30 48 N/A
5:50 pm 17:50 Mostly Cloudy 36 2 34 1 93 93 WNW 7 11 29.65 1004 30 48 N/A
6:20 pm 18:20 Mostly Cloudy 36 2 34 1 93 93 WNW 6 9 29.65 1004 30 48 N/A

Powered by AerisWeather